Вернуться в каталог

STARLINK-2336

АктивенСвязьVLEO
NORAD 47879·PAYLOAD·🇺🇸 United States

Запущен Mar 14, 2021 с Cape Canaveral Space Force Station

Loading…

Ближайшие Пролёты (ближайшие 24 часа)

TLE

СвежийSource: CelesTrak SupGP

Эпоха: Sep 14, 2026, 21:28 UTC

1 47879C 21021V   26257.89493056  .02645200  00000+0  10336-2 0  2577
2 47879  53.1356  73.5672 0011468 291.1159 277.1787 16.22935219    18

Отслеживайте STARLINK-2336 в реальном времени с AllMySat

Download on the App Store